STARLINK-36427, 67333

Orbit data source: Space-Track

STARLINK-36427, 67333 is a payload satellite owned by SpaceX/Seattle (US) in LEO that was launched on Sun, 04 Jan 2026 UTC via an FALCON 9 launch vehicle from the Air Force Eastern Test Range (AFETR). Payload-class satellites include a variety of spacecraft equipped with specific instruments for various scientific and technological missions. These include communications satellites like Starlink; space stations such as the ISS; scientific satellites like the Hubble; Earth observation satellites from companies like Planet Labs, Umbra, and HawkEye 360; GPS; miniature CubeSats for education and research; and military/defense satellites.

Loading next visibility...
Identifier
67333, 2026-002AE
Orbit
LEO
Country
Flag of USUS
Related business
Manufacturer
SpaceX/Seattle
Mission
Operational Commercial Communications
Bus & Motor
STARLINK V2MO, Unknown motor
Mass
575 kg wet, ~530 kg dry
Launch date (UTC)
2026-01-04 (5 months ago)
Launch vehicle
FALCON 9
Launch site
Air Force Eastern Test Range (AFETR)
Object type
Payload
Rocket body
Debris
Shape & HBR
Box + 2 Pan, 17.7 m
Radar Cross Section
36.964 m², Large (>1 m²)

Expand to show TLE details & history
Last TLE update: 14 hours ago

TLE from 14 hours ago
0 STARLINK-36427
1 67333U 26002AE  26171.25141115  .00010379  00000-0  38602-3 0  9991
2 67333  42.9999 106.1036 0000761 269.5816  90.4948 15.27591692 26823
Epoch: 2026-06-20T06:02Z
TLE epoch observation values (Epoch: 2026-06-20T06:02:01.923Z)
Latitude
-0.00004°
Longitude
107.12683°
Altitude
482.794 km
Speed
7.626 km/s
True Right ascension
07h 04m 24s
True Declination
0° 00' 00"
Sunlit
Object was in daylight at epoch
Visualization orbit readout
Latitude
Unknown
Longitude
Unknown
Altitude
Unknown
Speed
Unknown
Apparent Right ascension
Unknown
Apparent Declination
Unknown
Sunlit
N/A
Visualization observer readout
Local Sidereal Time
07:21:08
Azimuth
Unknown
Elevation
Unknown
Doppler factor
Unknown
Orbital elements
Apogee altitude
485.482 km
Perigee altitude
484.437 km
Semi-major axis
6,863.096 km
Eccentricity
0.00008
Inclination
42.9999°
RAAN
106.1036°
Arg. of periapsis
269.5816°
True anomaly
90.50352°
Mean anomaly
90.4948°
Eccentric anomaly
90.49916°
Mean motion
3.81736 °/min
Orbital period
94.31 mins
BSTAR
0.00038602
Loading maneuver chart data...
Computing Atmospheric mass density...
Loading historical data...
Loading historical data...
Loading historical data...
Loading historical data...
Loading historical data...
Loading historical data...
Loading historical data...

Documentation

Showing up to 5 results
|